TimeCST,TemperatureF,Dew PointF,Humidity,Sea Level PressureIn,VisibilityMPH,Wind Direction,Wind SpeedMPH,Gust SpeedMPH,PrecipitationIn,Events,Conditions,WindDirDegrees,DateUTC
12:15 AM,64.4,57.2,77,29.97,10.0,South,11.5,-,N/A,,Clear,190,2012-12-02 06:15:00
12:36 AM,64.4,57.2,77,29.97,10.0,South,10.4,17.3,N/A,,Clear,190,2012-12-02 06:36:00
12:55 AM,64.4,57.2,77,29.96,10.0,South,10.4,-,N/A,,Clear,190,2012-12-02 06:55:00
1:15 AM,64.4,57.2,77,29.97,10.0,South,10.4,16.1,N/A,,Clear,190,2012-12-02 07:15:00
1:35 AM,64.4,57.2,77,29.97,10.0,South,9.2,-,N/A,,Clear,190,2012-12-02 07:35:00
1:55 AM,64.4,57.2,77,29.97,10.0,South,9.2,-,N/A,,Clear,190,2012-12-02 07:55:00
2:15 AM,64.4,57.2,77,29.97,10.0,South,9.2,-,N/A,,Clear,190,2012-12-02 08:15:00
3:15 AM,64.4,57.2,77,29.99,10.0,SSW,8.1,-,N/A,,Clear,200,2012-12-02 09:15:00
3:35 AM,64.4,57.2,77,29.99,10.0,SSW,10.4,-,N/A,,Clear,200,2012-12-02 09:35:00
4:15 AM,64.4,57.2,77,29.98,10.0,SSW,8.1,-,N/A,,Clear,200,2012-12-02 10:15:00
4:35 AM,64.4,57.2,77,29.98,10.0,South,9.2,-,N/A,,Clear,190,2012-12-02 10:35:00
4:55 AM,62.6,57.2,82,29.99,10.0,SSW,6.9,-,N/A,,Clear,200,2012-12-02 10:55:00
5:35 AM,62.6,57.2,82,30.00,10.0,South,8.1,-,N/A,,Mostly Cloudy,190,2012-12-02 11:35:00
5:55 AM,64.4,57.2,77,30.00,10.0,SSW,8.1,-,N/A,,Mostly Cloudy,200,2012-12-02 11:55:00
6:15 AM,62.6,57.2,82,30.00,10.0,South,8.1,-,N/A,,Mostly Cloudy,190,2012-12-02 12:15:00
6:35 AM,64.4,57.2,77,30.01,10.0,SSW,9.2,-,N/A,,Overcast,200,2012-12-02 12:35:00
6:55 AM,64.4,59.0,83,30.02,10.0,South,8.1,-,N/A,,Overcast,190,2012-12-02 12:55:00
7:16 AM,64.4,59.0,83,30.03,10.0,SSW,8.1,-,N/A,,Overcast,200,2012-12-02 13:16:00
7:35 AM,64.4,59.0,83,30.04,10.0,SW,6.9,-,N/A,,Overcast,220,2012-12-02 13:35:00
7:55 AM,64.4,59.0,83,30.04,10.0,SSW,8.1,-,N/A,,Overcast,210,2012-12-02 13:55:00
8:35 AM,66.2,59.0,78,30.05,10.0,SSW,9.2,-,N/A,,Overcast,210,2012-12-02 14:35:00
8:55 AM,66.2,60.8,83,30.05,10.0,SSW,9.2,-,N/A,,Overcast,210,2012-12-02 14:55:00
9:15 AM,66.2,60.8,83,30.06,10.0,SSW,10.4,-,N/A,,Overcast,210,2012-12-02 15:15:00
9:36 AM,68.0,59.0,73,30.06,10.0,SSW,13.8,-,N/A,,Overcast,210,2012-12-02 15:36:00
9:55 AM,68.0,60.8,78,30.06,10.0,SSW,12.7,-,N/A,,Overcast,210,2012-12-02 15:55:00
10:15 AM,69.8,59.0,68,30.06,10.0,SW,15.0,-,N/A,,Overcast,220,2012-12-02 16:15:00
10:55 AM,71.6,57.2,60,30.06,10.0,SW,17.3,21.9,N/A,,Mostly Cloudy,220,2012-12-02 16:55:00
11:35 AM,73.4,55.4,53,30.05,10.0,SW,17.3,23.0,N/A,,Mostly Cloudy,220,2012-12-02 17:35:00
11:55 AM,71.6,55.4,57,30.04,10.0,SW,15.0,20.7,N/A,,Mostly Cloudy,220,2012-12-02 17:55:00
12:15 PM,71.6,55.4,57,30.03,10.0,SW,15.0,20.7,N/A,,Partly Cloudy,230,2012-12-02 18:15:00
12:35 PM,73.4,55.4,53,30.02,10.0,SSW,16.1,20.7,N/A,,Partly Cloudy,210,2012-12-02 18:35:00
12:56 PM,71.6,55.4,57,30.02,10.0,SW,12.7,18.4,N/A,,Partly Cloudy,220,2012-12-02 18:56:00
1:15 PM,73.4,55.4,53,30.01,10.0,SW,13.8,23.0,N/A,,Clear,220,2012-12-02 19:15:00
1:35 PM,75.2,55.4,50,30.00,10.0,SSW,15.0,20.7,N/A,,Clear,210,2012-12-02 19:35:00
1:56 PM,75.2,55.4,50,29.99,10.0,SW,16.1,23.0,N/A,,Scattered Clouds,220,2012-12-02 19:56:00
2:15 PM,75.2,55.4,50,29.99,10.0,SSW,12.7,21.9,N/A,,Scattered Clouds,210,2012-12-02 20:15:00
2:35 PM,75.2,55.4,50,29.98,10.0,SW,16.1,20.7,N/A,,Partly Cloudy,220,2012-12-02 20:35:00
2:55 PM,75.2,55.4,50,29.98,10.0,SW,16.1,-,N/A,,Partly Cloudy,220,2012-12-02 20:55:00
3:15 PM,73.4,57.2,57,29.98,10.0,SSW,12.7,19.6,N/A,,Mostly Cloudy,200,2012-12-02 21:15:00
3:35 PM,73.4,57.2,57,29.98,10.0,SSW,12.7,20.7,N/A,,Mostly Cloudy,200,2012-12-02 21:35:00
3:55 PM,71.6,57.2,60,29.99,10.0,SW,15.0,18.4,N/A,,Mostly Cloudy,220,2012-12-02 21:55:00
4:15 PM,71.6,57.2,60,29.99,10.0,SSW,13.8,17.3,N/A,,Scattered Clouds,210,2012-12-02 22:15:00
4:35 PM,71.6,57.2,60,29.99,10.0,South,15.0,18.4,N/A,,Mostly Cloudy,190,2012-12-02 22:35:00
4:55 PM,69.8,57.2,64,29.99,10.0,South,9.2,-,N/A,,Scattered Clouds,190,2012-12-02 22:55:00
5:35 PM,69.8,55.4,60,30.00,10.0,SSW,9.2,-,N/A,,Partly Cloudy,210,2012-12-02 23:35:00
5:55 PM,68.0,55.4,64,30.00,10.0,South,6.9,-,N/A,,Clear,190,2012-12-02 23:55:00
6:15 PM,66.2,55.4,68,30.00,10.0,South,6.9,-,N/A,,Clear,180,2012-12-03 00:15:00
6:35 PM,66.2,57.2,73,30.00,10.0,South,8.1,-,N/A,,Clear,180,2012-12-03 00:35:00
7:35 PM,64.4,57.2,77,30.00,10.0,South,6.9,-,N/A,,Clear,180,2012-12-03 01:35:00
7:55 PM,64.4,57.2,77,29.99,10.0,South,8.1,-,N/A,,Partly Cloudy,170,2012-12-03 01:55:00
8:15 PM,64.4,57.2,77,29.99,10.0,South,9.2,-,N/A,,Mostly Cloudy,180,2012-12-03 02:15:00
8:35 PM,64.4,57.2,77,29.98,10.0,South,9.2,-,N/A,,Scattered Clouds,180,2012-12-03 02:35:00
8:55 PM,64.4,57.2,77,29.98,10.0,South,9.2,-,N/A,,Mostly Cloudy,170,2012-12-03 02:55:00
9:15 PM,64.4,57.2,77,29.98,10.0,South,6.9,-,N/A,,Partly Cloudy,180,2012-12-03 03:15:00
9:36 PM,64.4,57.2,77,29.98,10.0,South,8.1,-,N/A,,Clear,180,2012-12-03 03:36:00
9:55 PM,64.4,57.2,77,29.99,10.0,South,10.4,-,N/A,,Clear,180,2012-12-03 03:55:00
10:15 PM,66.2,57.2,73,29.98,10.0,South,12.7,19.6,N/A,,Clear,190,2012-12-03 04:15:00
10:35 PM,66.2,57.2,73,29.98,10.0,South,10.4,18.4,N/A,,Clear,190,2012-12-03 04:35:00
11:15 PM,66.2,57.2,73,29.98,10.0,South,11.5,16.1,N/A,,Clear,190,2012-12-03 05:15:00
11:35 PM,66.2,57.2,73,29.98,10.0,South,16.1,19.6,N/A,,Clear,190,2012-12-03 05:35:00